Location: Trondheim
(63.4170°N, 10.4170°E)
Time: 05:00:42
(UTC+01:00)

Iridium 82 - Visible Passes

Search period start: 31 October 2014 00:00
Search period end: 10 November 2014 00:00
Orbit: 776 x 779 km, 86.4° (Epoch: 30 October)

Date Brightness Start Highest point End Pass type
(mag) Time Alt. Az. Time Alt. Az. Time Alt. Az.
31 Oct 8.2 00:07:50 13° NE 00:07:50 13° NE 00:08:55 10° NNE visible
31 Oct 7.4 01:48:18 27° NNE 01:48:18 27° NNE 01:50:41 10° NNE visible
31 Oct 7.0 03:28:47 27° NNW 03:28:47 27° NNW 03:31:30 10° N visible
31 Oct 7.4 05:09:16 14° NW 05:09:16 14° NW 05:11:32 10° NNW visible
01 Nov 7.7 01:15:02 22° NNE 01:15:02 22° NNE 01:17:00 10° NNE visible
01 Nov 7.1 02:55:31 28° N 02:55:31 28° N 02:58:00 10° N visible
01 Nov 7.3 04:36:00 17° NNW 04:36:00 17° NNW 04:38:20 10° N visible
02 Nov 8.0 00:41:45 17° NNE 00:41:45 17° NNE 00:43:15 10° NNE visible
02 Nov 7.3 02:22:14 26° N 02:22:14 26° N 02:24:27 10° N visible
02 Nov 7.3 04:02:42 20° NNW 04:02:42 20° NNW 04:05:00 10° N visible
03 Nov 8.2 00:08:27 13° NNE 00:08:27 13° NNE 00:09:21 10° NNE visible
03 Nov 7.6 01:48:56 23° NNE 01:48:56 23° NNE 01:50:51 10° N visible
03 Nov 7.3 03:29:25 22° NNW 03:29:25 22° NNW 03:31:34 10° N visible
03 Nov 7.6 05:09:53 12° NNW 05:09:53 12° NNW 05:11:15 10° NNW visible
03 Nov 8.4 23:35:09 10° NNE 23:35:09 10° NNE 23:35:12 10° NNE visible
04 Nov 7.9 01:15:38 20° NNE 01:15:38 20° NNE 01:17:12 10° NNE visible
04 Nov 7.4 02:56:06 22° N 02:56:06 22° N 02:58:05 10° N visible
04 Nov 7.5 04:36:35 14° NNW 04:36:35 14° NNW 04:38:16 10° N visible
05 Nov 8.1 00:42:19 16° NNE 00:42:19 16° NNE 00:43:30 10° NNE visible
05 Nov 7.6 02:22:48 22° N 02:22:48 22° N 02:24:34 10° N visible
05 Nov 7.5 04:03:16 16° NNW 04:03:16 16° NNW 04:05:00 10° N visible
06 Nov 8.3 00:09:00 13° NNE 00:09:00 13° NNE 00:09:41 10° NNE visible
06 Nov 7.8 01:49:28 20° N 01:49:28 20° N 01:50:59 10° N visible
06 Nov 7.6 03:29:57 18° NNW 03:29:57 18° NNW 03:31:37 10° N visible
06 Nov 8.4 23:35:40 10° NNE 23:35:40 10° NNE 23:35:43 10° NNE visible
07 Nov 8.0 01:16:09 17° NNE 01:16:09 17° NNE 01:17:22 10° N visible
07 Nov 7.6 02:56:37 18° N 02:56:37 18° N 02:58:09 10° N visible
07 Nov 7.7 04:37:06 12° NNW 04:37:06 12° NNW 04:38:05 10° NNW visible
08 Nov 8.2 00:42:49 15° NNE 00:42:49 15° NNE 00:43:42 10° NNE visible
08 Nov 7.8 02:23:17 18° N 02:23:17 18° N 02:24:39 10° N visible
08 Nov 7.7 04:03:46 14° NNW 04:03:46 14° NNW 04:04:56 10° N visible
09 Nov 8.4 00:09:28 12° NNE 00:09:28 12° NNE 00:09:57 10° NNE visible
09 Nov 8.0 01:49:57 17° N 01:49:57 17° N 01:51:06 10° N visible
09 Nov 7.8 03:30:25 15° NNW 03:30:25 15° NNW 03:31:37 10° N visible
